Regional Weather Roundup
Issued by NWS Charleston, WV

Home | Current Version | Previous Version | Graphics & Text | Print | Product List | Glossary On
Versions: 1 2 3 4 5 6 7 8 9 10 11 12 13 14 15 16 17 18 19 20 21 22 23 24 25 26 27 28 29 30 31 32 33 34 35 36 37 38 39 40 41 42 43 44 45 46 47 48 49 50
000
ASUS41 KRLX 161410
RWRRLX
West Virginia Regional Weather Roundup
National Weather Service Charleston WV
900 AM EST TUE JAN 16 2018

Note: "fair" indicates few or no clouds below 12,000 feet with no
significant weather and/or obstructions to visibility.

WVZ003-161500-
Northern Panhandle of West Virginia

CITY           SKY/WX    TMP DP  RH WIND       PRES   REMARKS
WHEELING       LGT SNOW  25  23  92 SW5       30.35R VSB 1
$$

WVZ009-161500-
Northwest West Virginia

CITY           SKY/WX    TMP DP  RH WIND       PRES   REMARKS
PARKERSBURG    LGT SNOW  23  19  85 NW8       30.44R FOG
$$

WVZ006-161500-
Western West Virginia

CITY           SKY/WX    TMP DP  RH WIND       PRES   REMARKS
HUNTINGTON     LGT SNOW  22  18  85 NW7       30.44R VSB 1
$$

WVZ015-161500-
West Central West Virginia

CITY           SKY/WX    TMP DP  RH WIND       PRES   REMARKS
CHARLESTON     LGT SNOW  29  26  89 W3        30.40R FOG
$$

WVZ022-031-161500-
North Central West Virginia

CITY           SKY/WX    TMP DP  RH WIND       PRES   REMARKS
CLARKSBURG     LGT SNOW  30  27  88 CALM      30.36S FOG
MORGANTOWN     CLOUDY    29  26  89 SW3       30.36S FOG
$$

WVZ025-035-042-045-161500-
Southern West Virginia

CITY           SKY/WX    TMP DP  RH WIND       PRES   REMARKS
BECKLEY        CLOUDY    32  21  64 SW5       30.29R
LOGAN          LGT SNOW  28  27  93 CALM      30.35S
BLUEFIELD      CLOUDY    32  20  61 SW6       30.30R
LEWISBURG      CLOUDY    26  20  79 CALM      30.32S
$$

WVZ047-161500-
Northern Mountains of West Virginia

CITY           SKY/WX    TMP DP  RH WIND       PRES   REMARKS
ELKINS         FLURRIES  30  26  85 N5        30.31R
$$

WVZ052-161500-
Eastern Panhandle of West Virginia

CITY           SKY/WX    TMP DP  RH WIND       PRES   REMARKS
MARTINSBURG    CLOUDY    27  22  81 NE3       30.43R HAZE
PETERSBURG     CLOUDY    22  17  80 CALM      30.39S
$$



USA.gov is the U.S. government's official web portal to all federal, state and local government web resources and services.